Tracking 19832 objects as of 26-Aug-2019
HD Live streaming from Space Station
objects crossing your sky now

METEOR 2-12

Track METEOR 2-12 now!
10-day predictions
METEOR 2-12 is classified as:


NORAD ID: 15516
Int'l Code: 1985-013A
Perigee: 938.6 km
Apogee: 963.6 km
Inclination: 82.5 °
Period: 103.9 minutes
Semi major axis: 7322 km
RCS: 5.2452 m2 (large)
Launch date: February 6, 1985
Source: Commonwealth of Independent States (former USSR) (CIS)
Launch site: PLESETSK MISSILE AND SPACE COMPLEX (PKMTR)
aabbcc
Your satellite tracking list
Your tracking list is empty




NASA's NSSDC Master Catalog

Two Line Element Set (TLE):
1 15516U 85013A   19237.88277639 +.00000051 +00000-0 +31037-4 0  9991
2 15516 082.5344 156.6104 0017032 076.6828 283.6231 13.85632737747333
Source of the keplerian elements: AFSPC